Wind_Speed
5 6 6 8 8 9 8 6 5 4 6 7 9 7 4 5 2 2 5 4 4 5 3 6 8 7 5 8 12 15 15 12 9 3 3 5 5 7 7 7 7 8 5 7 9 12 12 13 14 12 10 8 7 8 8 8 9 9 12 14 15 16 15 15 16 18 18 16 14 15 15 14 14 14 12 12 13 13 14 13 12 12 13 13 13 13 12 11 12 12 10 10 9 10 11 13 13
6 7 7 9 9 9 5 5 6 5 7 7 9 7 4 8 3 7 6 4 6 7 5 7 8 7 8 9 9 12 14 15 14 9 8 9 9 11 9 7 8 9 6 5 8 11 11 12 15 14 12 9 8 8 8 8 9 10 11 13 15 16 16 15 16 16 17 15 14 14 14 14 14 13 12 12 13 13 14 14 13 13 14 13 13 13 12 11 12 11 10 9 9 10 10 11 13
7 7 7 8 9 8 4 4 7 7 8 7 8 5 6 5 6 6 8 8 10 9 7 8 8 5 3 8 8 9 11 11 13 10 8 6 7 11 9 8 9 9 9 6 6 10 10 12 15 14 12 11 10 8 8 9 9 10 11 13 14 17 17 17 17 16 17 16 15 14 13 13 13 12 12 13 13 13 15 15 15 14 14 14 13 12 12 11 11 11 9 9 9 10 10 10 13
7 8 9 9 7 6 6 6 7 9 8 7 7 7 7 6 6 10 10 10 9 7 7 7 7 6 4 9 8 9 11 9 12 10 8 7 7 9 8 8 9 8 11 11 9 10 10 13 16 15 13 11 11 9 9 9 10 10 11 12 14 16 18 19 18 17 18 16 16 15 13 13 12 12 13 14 13 13 14 15 15 15 14 14 13 13 12 11 10 10 10 10 10 11 10 11 13
7 9 10 9 5 3 5 6 7 9 8 7 4 7 8 6 11 10 9 8 6 5 5 5 5 6 9 11 5 6 9 8 12 11 10 10 7 9 9 8 10 10 12 14 14 13 12 15 18 17 15 14 13 11 10 10 11 11 11 12 13 16 18 19 18 17 18 17 16 15 14 14 13 12 13 14 14 14 14 14 14 14 14 13 13 13 11 11 10 10 10 10 9 10 11 11 12
8 9 10 10 6 4 5 7 7 9 9 8 5 5 7 7 12 10 10 9 6 5 3 2 5 8 9 10 9 9 6 6 10 10 10 10 8 10 10 10 12 12 14 16 16 14 14 19 20 19 18 16 15 13 12 11 11 11 12 12 14 15 17 18 18 18 18 16 16 15 15 15 14 13 13 15 15 14 14 13 13 13 14 13 13 13 12 12 11 11 10 9 9 10 11 11 12
9 7 7 8 6 4 7 8 8 9 8 7 3 3 6 8 10 11 11 9 7 5 1 2 6 8 8 6 9 11 10 10 9 9 11 10 10 12 10 10 13 13 15 16 16 14 15 18 19 19 18 18 17 15 13 11 10 11 12 12 14 15 16 17 18 18 17 16 16 16 16 16 15 14 14 14 15 15 14 13 13 14 14 14 14 14 13 13 12 10 9 9 10 11 12 11 11
11 7 4 6 6 5 8 8 10 8 2 4 2 3 3 10 9 10 11 9 7 6 4 4 4 5 8 6 7 10 12 13 11 11 12 11 12 12 10 11 13 13 14 16 15 13 14 15 17 17 17 18 18 16 15 13 11 10 11 12 13 15 16 17 17 17 16 16 16 17 17 16 15 15 14 14 15 15 14 14 13 13 14 14 15 14 14 13 12 10 9 9 10 12 12 11 11
11 8 4 6 7 6 8 8 11 8 2 2 5 1 1 9 9 10 10 7 7 6 6 5 2 2 10 11 9 9 10 13 12 12 12 13 13 12 12 12 13 12 13 14 13 11 12 13 14 15 16 17 18 17 16 15 13 11 11 12 12 14 16 17 17 16 16 17 17 17 16 15 15 15 14 14 14 14 14 13 12 13 13 15 16 15 14 13 12 10 9 9 10 12 12 11 11
8 7 5 5 8 7 9 8 9 8 5 2 4 6 5 7 8 10 8 7 8 7 7 3 2 5 11 12 9 8 10 12 12 13 12 13 13 13 14 14 14 13 13 14 13 11 9 12 13 14 15 16 17 17 16 16 15 12 11 11 12 13 15 16 16 16 16 16 16 16 15 15 15 14 14 13 13 13 14 13 12 12 13 15 15 14 13 11 10 9 8 9 10 12 12 12 12
6 6 6 5 8 8 8 8 9 6 7 4 4 7 7 7 8 9 8 8 8 7 7 4 4 10 11 10 7 8 11 11 11 13 13 13 13 13 14 14 14 14 14 15 14 12 9 9 11 12 14 16 17 18 17 17 15 14 12 12 12 13 14 15 15 15 16 16 15 14 14 13 14 14 14 13 13 13 13 13 13 13 14 14 14 13 12 10 9 8 9 9 11 12 12 13 12
7 6 6 6 7 8 8 8 10 7 7 7 7 8 7 8 9 7 7 8 7 8 6 3 5 9 9 9 6 10 12 10 12 12 12 13 13 13 13 13 14 14 14 14 14 13 11 9 7 9 13 16 17 18 18 17 16 15 13 13 13 13 13 14 15 15 15 15 14 14 13 13 14 15 14 13 13 13 12 13 13 14 14 15 14 13 11 10 10 9 9 10 12 13 14 13 11
7 6 7 7 7 8 9 9 6 6 6 7 8 9 7 8 9 7 7 8 7 8 6 3 5 5 6 10 7 10 11 10 11 11 12 12 13 13 13 13 13 13 13 13 13 13 11 11 8 8 12 14 14 16 17 17 17 16 14 14 13 13 13 13 14 14 14 14 13 14 14 13 14 14 14 14 13 13 12 13 13 14 14 14 14 13 12 11 10 10 10 11 14 14 14 12 10
7 6 6 7 8 9 7 7 4 4 6 8 9 9 8 7 8 8 7 9 8 6 7 6 2 2 7 9 7 8 9 12 11 11 12 11 12 12 12 13 13 12 12 12 12 12 11 11 9 8 10 11 11 13 14 17 17 16 16 15 14 13 12 12 13 13 13 13 13 14 14 14 14 13 14 15 14 13 13 13 13 13 13 13 14 14 12 11 10 10 10 12 14 14 13 11 10
8 5 6 7 8 8 6 7 5 5 5 10 12 10 9 4 5 8 5 5 7 9 6 5 4 1 5 6 7 10 12 14 12 11 11 11 11 11 12 12 12 12 11 11 11 11 10 10 9 7 7 7 8 9 11 15 17 17 17 16 14 13 12 12 12 12 12 13 14 14 14 14 14 14 15 15 14 15 14 14 14 13 12 12 13 13 12 11 10 10 12 13 14 13 12 10 8
7 5 5 7 8 7 7 8 7 5 5 12 12 11 10 5 3 4 3 2 8 8 4 5 3 3 5 5 12 17 16 14 12 11 10 10 9 9 10 11 12 12 11 11 10 9 9 9 9 6 6 5 6 6 8 12 16 18 18 16 14 13 12 12 12 12 12 14 15 15 15 14 14 14 16 16 15 16 15 15 14 13 13 11 12 12 11 11 11 12 13 14 14 12 10 8 6
6 6 7 7 8 8 6 8 6 2 7 11 12 12 11 9 5 2 3 2 8 8 3 7 5 5 9 12 17 20 17 14 12 11 9 8 8 7 8 8 10 11 10 10 9 8 8 7 8 7 6 4 5 5 6 10 14 17 17 15 14 13 13 12 11 11 12 14 14 14 14 14 14 15 15 15 15 16 16 15 14 14 13 11 11 10 11 11 12 13 14 15 14 11 9 7 6
5 6 7 6 8 7 4 6 4 2 8 9 10 12 11 11 9 5 6 6 7 8 6 8 7 8 10 13 16 17 15 13 11 10 8 6 5 6 6 6 7 8 8 9 9 7 7 6 6 6 5 4 4 3 5 8 10 13 13 13 14 13 13 12 11 11 13 14 14 15 14 14 14 14 15 16 16 16 17 16 15 15 13 11 11 11 11 11 12 15 15 15 14 11 9 8 7
7 7 6 8 8 2 2 1 2 2 5 7 8 10 10 11 11 8 9 9 8 8 9 9 9 10 9 13 15 15 14 12 10 8 7 5 4 5 5 6 6 6 6 7 8 7 6 5 5 5 5 4 3 3 3 6 8 10 11 11 13 14 14 13 12 12 13 13 14 14 14 14 14 15 17 17 17 18 18 18 16 16 14 12 12 11 11 11 12 15 16 15 13 11 9 8 9
8 8 7 9 7 2 3 2 3 3 2 7 8 8 8 9 10 8 10 10 10 9 9 10 10 11 11 13 14 14 13 11 10 8 7 5 6 6 4 5 5 6 5 5 7 6 6 4 4 4 4 4 3 3 2 5 8 9 10 12 14 15 15 13 12 12 13 13 13 13 13 14 14 15 16 16 17 18 18 18 18 16 14 13 12 12 11 11 12 14 17 15 13 12 9 7 9
7 9 7 4 3 2 3 1 0 2 1 4 8 7 7 8 7 8 9 8 8 10 10 9 8 13 12 13 14 14 13 12 11 9 8 7 6 6 5 6 5 5 4 5 7 6 5 4 4 3 4 4 3 3 3 3 8 9 9 12 14 15 16 15 12 11 12 11 11 12 12 13 14 15 15 16 16 16 17 19 20 17 16 14 14 13 13 13 12 14 16 15 13 12 9 6 8
6 10 8 6 5 0 5 3 1 1 3 3 7 8 8 7 6 7 9 8 3 0 7 7 5 12 13 13 13 13 13 12 11 10 8 7 6 6 7 7 6 5 4 6 7 6 5 5 5 3 4 3 3 3 4 4 6 9 10 10 12 15 14 13 12 12 12 11 12 13 12 11 12 14 14 15 15 16 17 19 20 18 16 16 16 14 14 15 14 15 16 15 14 11 8 7 7
6 9 8 3 5 2 5 4 2 3 5 5 6 5 5 7 8 7 9 5 6 8 7 6 5 11 13 13 13 12 12 11 11 10 9 8 7 7 7 6 6 6 6 7 6 6 5 5 6 4 4 3 3 3 4 5 4 5 8 9 9 12 11 11 11 12 12 12 15 16 13 10 11 11 13 14 15 17 17 18 20 18 16 17 17 15 14 16 15 15 15 14 13 10 8 8 7
8 7 6 5 4 1 3 4 3 3 5 3 2 1 4 8 7 6 9 3 6 4 4 5 6 12 13 12 12 11 12 11 10 10 10 9 9 9 8 7 7 7 7 7 6 6 6 6 6 5 5 4 3 4 4 5 5 5 6 7 8 11 10 10 12 13 12 12 16 16 12 10 11 9 11 12 13 15 15 17 19 18 18 17 17 15 14 15 15 14 14 13 12 10 9 9 8
11 8 3 6 4 2 3 3 4 4 3 1 1 4 7 6 1 4 9 3 5 2 3 5 7 11 11 11 12 11 11 11 11 10 10 10 11 9 8 8 8 8 8 7 6 6 6 7 7 6 6 4 4 3 4 5 5 5 5 4 6 10 9 11 12 10 9 11 14 13 10 11 12 9 10 11 9 10 11 15 19 20 20 17 16 15 14 15 15 14 13 12 11 9 9 9 9
10 8 2 6 6 5 5 5 5 5 4 3 6 9 7 4 2 5 10 6 6 4 5 6 8 10 10 11 11 11 11 11 12 11 11 12 11 10 8 8 8 8 8 6 6 6 6 6 7 7 6 5 4 3 4 5 5 5 5 5 3 4 6 10 10 7 8 9 10 11 11 13 12 11 12 13 10 9 8 12 17 20 19 17 16 14 13 14 14 14 13 12 11 9 9 9 9
5 6 3 6 6 6 6 6 6 5 4 4 8 9 6 6 5 9 9 9 8 6 8 8 9 9 10 11 11 10 11 12 13 12 12 13 11 10 8 8 8 8 7 6 7 6 6 7 7 8 7 7 5 5 5 4 4 4 4 3 4 3 1 4 5 6 8 8 8 9 12 14 12 12 14 14 12 10 9 10 13 16 17 16 16 13 12 12 13 12 12 11 11 10 10 9 9
4 6 4 6 5 7 8 6 6 6 5 6 8 9 7 7 9 9 6 10 8 8 9 10 10 9 10 11 11 10 10 12 13 12 12 12 11 10 9 8 9 9 8 7 7 7 7 8 8 8 8 7 7 6 6 5 5 4 3 3 2 2 1 1 2 3 6 8 9 8 9 11 11 10 12 13 13 13 12 12 11 11 14 15 13 10 10 11 11 11 12 11 10 10 9 9 9
6 6 7 9 8 8 10 9 7 7 5 5 5 9 9 11 13 10 8 9 8 9 10 10 10 9 10 11 10 9 10 13 13 12 13 12 11 11 10 10 10 9 9 8 8 8 7 7 7 8 8 8 8 7 6 6 5 4 4 3 3 2 1 1 1 2 3 6 8 8 8 8 8 8 9 11 13 13 14 15 13 10 12 13 11 10 10 11 11 11 11 11 9 9 9 9 9
7 8 9 8 8 9 12 11 8 7 4 5 4 7 9 13 16 11 10 9 9 10 10 10 10 9 10 10 9 9 10 12 11 12 13 12 12 12 11 11 10 9 10 10 9 8 7 7 7 7 8 8 8 8 7 7 6 5 4 4 3 3 2 1 1 2 3 4 5 6 6 6 7 8 9 10 12 13 13 14 14 13 13 12 9 10 11 11 11 11 11 10 9 10 10 10 10
8 9 8 6 7 8 13 13 9 8 6 6 7 7 8 10 14 12 10 10 10 11 10 10 10 8 9 9 9 10 10 11 12 13 13 12 13 13 13 12 9 9 11 10 10 9 8 8 7 7 8 8 9 8 8 7 7 6 6 5 4 3 2 2 2 2 3 3 4 4 5 6 7 8 10 10 11 13 13 13 13 13 14 14 12 11 12 11 11 11 11 10 10 11 11 11 11
8 7 6 7 8 3 12 13 10 9 6 8 10 7 8 7 12 12 9 10 11 11 11 10 10 9 9 9 9 9 10 12 13 14 14 14 14 14 14 13 10 10 11 11 11 10 9 8 7 7 7 7 8 8 7 7 6 6 6 6 5 4 3 2 2 3 3 3 3 3 3 4 5 7 9 10 10 12 14 14 13 14 15 16 15 12 13 13 11 12 11 10 11 11 12 12 11
7 7 7 8 8 5 9 11 12 11 7 10 11 8 8 5 11 12 10 11 11 11 11 10 10 9 9 8 8 8 9 11 13 14 15 15 14 14 14 14 12 11 12 12 12 11 10 9 7 7 6 6 5 6 6 6 6 6 6 6 5 5 3 3 3 3 3 3 3 3 3 4 4 5 7 9 10 13 15 15 13 15 18 18 15 13 14 14 11 11 11 12 12 12 12 13 12
6 7 7 7 8 6 5 8 11 12 9 10 12 11 11 5 8 11 10 11 12 11 10 11 10 9 9 9 9 9 9 10 11 14 18 17 15 16 15 15 14 12 12 12 12 12 10 9 8 7 6 5 4 3 3 4 5 5 5 6 5 5 3 3 3 2 2 3 3 3 4 4 4 4 6 7 10 13 14 16 15 15 17 18 17 15 15 15 13 13 12 12 13 14 14 14 14
6 7 7 7 7 9 8 2 7 11 10 10 11 12 13 11 6 10 11 11 12 11 10 10 10 10 10 9 9 9 10 10 11 14 19 19 17 17 16 15 15 14 13 12 12 12 11 10 8 7 6 4 4 2 1 1 3 4 6 6 6 6 4 4 3 2 2 2 2 3 4 4 4 4 4 5 7 10 12 16 17 14 13 16 17 17 17 15 15 17 15 13 13 15 15 14 15
8 5 4 7 6 7 7 2 6 6 8 10 11 11 13 14 11 10 11 11 12 11 10 9 9 10 10 9 9 9 10 10 11 15 19 20 19 19 18 16 16 15 14 13 12 12 11 10 9 7 6 4 3 1 1 2 3 4 6 6 7 7 6 4 3 2 2 2 2 3 4 3 4 4 4 4 5 7 9 12 15 14 12 12 14 18 20 18 16 17 17 16 16 17 17 15 15
7 6 5 7 7 7 5 4 7 3 5 9 11 13 14 14 13 11 12 12 12 13 13 11 10 10 9 10 10 10 11 10 12 15 18 21 21 20 19 17 17 16 15 14 13 12 11 10 9 8 6 4 3 2 3 3 4 4 5 6 7 7 7 6 2 2 2 2 2 3 3 3 3 4 4 4 5 5 7 9 11 13 13 12 13 15 17 18 18 16 16 17 18 19 18 16 14
6 7 7 8 9 8 4 3 5 2 4 10 12 14 15 14 13 12 11 13 14 14 14 13 13 12 11 12 13 12 11 11 13 13 16 20 21 21 21 18 18 18 17 16 15 13 12 11 10 9 8 6 4 3 3 3 4 4 4 5 6 6 7 6 4 3 3 2 2 2 2 3 3 4 4 4 5 5 6 7 8 10 12 12 14 15 15 17 17 17 18 20 20 20 20 19 17
7 7 8 8 8 7 3 4 4 4 4 8 12 14 13 13 13 14 13 12 13 14 15 15 15 14 13 13 13 12 11 12 12 11 14 19 21 22 22 19 19 19 18 17 16 14 13 12 11 10 9 8 6 5 4 4 3 4 4 5 6 6 5 5 3 2 2 2 1 1 1 2 4 4 5 4 5 5 6 7 7 8 10 11 13 14 16 17 18 20 23 23 20 20 21 21 20
7 7 7 7 6 6 5 5 4 4 4 8 12 11 9 10 13 14 15 14 13 14 16 16 15 14 13 12 11 10 11 12 10 10 13 17 20 22 22 20 20 19 18 17 17 16 15 14 12 11 10 9 8 7 6 5 4 3 4 3 4 4 3 4 3 2 2 3 2 2 2 3 5 5 6 6 6 6 6 7 8 9 10 11 11 12 14 16 18 21 24 23 21 21 20 20 19
8 8 8 8 5 5 5 1 2 4 7 9 10 8 9 12 14 13 13 15 15 15 16 16 15 14 13 12 12 11 9 9 9 11 13 15 18 21 22 21 20 19 18 18 18 17 16 15 14 13 12 10 9 9 8 7 5 4 3 2 2 2 3 4 4 4 4 3 3 2 3 4 5 6 6 6 7 7 7 8 8 9 10 12 12 13 14 14 16 18 21 24 23 23 22 21 20
8 9 9 9 8 6 5 3 3 6 7 9 8 7 7 9 13 13 11 13 15 14 15 16 15 14 14 13 12 11 9 8 9 11 13 14 17 20 22 22 21 20 19 18 18 18 16 15 15 14 13 11 11 10 9 7 5 4 4 2 2 1 2 4 4 3 3 3 3 3 3 4 5 6 7 7 7 7 8 8 8 9 10 11 13 13 14 13 14 16 19 22 23 25 26 21 19
6 4 7 7 7 7 7 6 7 7 4 7 8 7 6 3 8 11 10 10 12 12 14 15 14 14 14 12 11 11 11 10 9 10 13 14 17 19 20 21 22 21 20 19 17 17 17 16 15 16 13 12 12 11 10 8 6 5 4 3 2 1 2 3 2 2 1 2 3 3 4 4 4 6 7 7 8 8 8 9 9 10 11 11 13 14 14 14 15 16 17 19 21 24 27 25 21
3 2 3 6 7 8 9 8 8 8 4 5 10 9 7 6 7 8 10 10 11 11 12 13 13 13 13 12 11 12 12 11 10 10 12 14 16 18 19 21 22 21 20 19 18 17 18 17 16 16 14 12 12 12 10 8 7 6 5 4 3 2 3 3 2 2 1 1 2 3 3 4 5 5 6 7 8 9 9 10 10 10 11 12 12 13 14 14 15 16 17 18 21 23 26 29 28
1 2 3 5 7 9 9 8 8 8 7 5 10 10 6 8 8 5 9 10 11 11 12 12 12 12 12 11 11 12 12 11 11 11 12 13 15 18 19 21 21 20 19 19 18 17 18 17 16 16 14 13 13 13 12 10 8 7 6 5 4 3 3 3 3 2 1 1 1 2 3 4 4 4 6 6 7 8 9 10 11 12 12 12 13 14 15 15 15 17 17 18 21 24 27 30 31
1 1 5 6 7 8 8 9 7 8 9 8 9 9 7 8 6 6 8 9 10 10 11 11 11 12 11 11 11 11 10 10 11 12 12 13 16 18 19 20 20 19 19 18 18 17 17 17 17 16 15 14 13 14 12 11 9 8 6 6 5 4 4 3 2 2 2 2 1 2 2 2 3 3 4 5 6 8 9 10 11 13 13 14 14 14 15 16 16 17 17 19 20 23 25 26 29
2 4 8 8 8 8 7 7 7 8 8 10 13 12 9 7 6 6 6 8 8 7 8 10 11 11 11 10 10 11 10 10 11 12 12 14 16 18 19 19 19 18 18 18 17 16 16 17 17 17 16 15 14 14 14 12 10 9 7 7 6 6 5 4 4 3 3 3 2 2 2 2 3 3 4 5 5 6 8 9 11 13 14 15 16 16 16 16 17 17 17 18 19 21 22 22 26
5 7 8 7 7 7 7 7 7 8 8 10 14 12 10 8 7 6 2 7 7 6 7 9 11 11 10 9 9 10 10 10 11 11 12 13 14 16 17 17 18 18 18 17 17 16 16 17 17 18 17 16 15 15 15 13 11 9 8 8 7 7 6 5 5 4 4 4 4 3 3 4 4 4 4 5 5 6 7 9 10 12 13 15 16 17 17 16 16 17 17 18 18 20 20 20 23
8 8 7 7 7 6 7 8 7 8 9 11 11 8 9 9 9 9 4 5 7 6 7 7 10 11 10 10 10 10 10 10 11 11 12 12 12 13 17 18 19 19 18 18 17 17 16 16 18 18 18 18 16 15 15 14 13 11 10 9 8 8 7 6 5 5 5 4 5 5 4 5 5 5 5 6 6 7 8 9 10 11 13 14 16 17 18 18 17 17 18 18 19 20 19 20 24
9 9 8 8 7 7 9 8 8 9 9 9 7 6 8 8 8 11 9 8 8 7 8 7 8 10 9 9 10 10 11 11 11 11 12 12 12 14 17 19 19 18 17 18 18 17 17 16 17 18 18 18 17 16 16 15 14 13 12 11 10 9 8 7 6 5 5 5 5 5 6 6 6 7 7 8 8 8 9 10 11 12 14 15 16 17 18 19 19 19 19 19 20 21 20 19 23
9 10 9 9 8 8 9 8 8 8 5 2 3 5 6 6 3 5 9 9 8 9 10 8 8 8 8 8 9 9 10 11 10 10 11 12 14 17 18 18 18 17 17 17 17 17 16 16 17 18 18 19 18 17 17 17 15 14 13 12 11 10 9 8 7 6 6 6 6 6 7 7 8 8 9 9 9 10 11 12 12 13 14 15 16 17 18 19 20 20 20 20 20 21 21 21 21
8 8 10 10 8 8 8 9 10 9 6 4 5 6 6 6 6 5 6 8 9 11 11 11 11 10 9 9 9 9 9 10 10 11 11 12 14 17 17 17 17 17 17 17 17 17 17 16 17 18 19 19 19 18 17 17 16 15 14 13 12 11 9 8 7 7 6 6 6 7 8 8 9 9 10 10 11 12 13 13 14 14 15 15 16 17 18 19 19 20 21 21 21 21 21 22 22
5 6 9 9 10 10 8 10 10 9 9 8 8 8 8 8 10 10 11 12 12 12 12 13 12 12 11 10 9 10 10 10 11 11 11 11 13 15 17 17 16 16 16 17 17 17 17 16 16 18 18 19 19 18 17 17 16 15 15 14 13 11 10 9 8 7 7 7 8 8 9 9 10 10 11 11 12 13 14 14 15 15 15 16 16 17 18 19 20 21 21 22 22 22 22 22 23
7 7 8 7 10 10 7 8 9 9 10 9 8 11 10 9 8 10 14 15 14 14 13 13 13 13 13 11 10 11 10 11 12 12 11 11 12 15 16 17 17 16 15 16 16 15 15 15 16 17 18 19 20 19 18 17 17 16 15 14 13 12 11 9 8 8 8 8 9 9 9 10 10 11 11 12 13 14 15 15 16 16 16 16 17 17 18 19 20 21 22 22 23 23 23 23 23
13 11 9 8 9 9 7 7 8 9 10 9 10 13 12 11 9 9 13 14 13 14 14 13 14 14 12 11 11 11 10 10 11 11 11 10 11 15 17 16 17 16 14 14 14 14 14 14 14 16 18 19 20 19 18 18 17 16 15 14 14 12 11 10 9 9 9 9 10 10 11 11 12 12 13 13 14 15 16 16 16 17 17 17 17 18 18 18 20 21 21 22 23 24 25 24 23
13 10 9 9 8 9 9 8 7 9 10 9 11 13 11 10 10 11 14 14 12 13 13 13 14 14 13 11 10 10 10 9 10 10 10 11 12 15 17 17 17 15 13 13 14 13 13 14 14 15 16 18 19 19 19 18 18 16 15 14 14 12 11 10 10 10 10 10 11 11 12 13 13 13 14 14 15 16 17 17 17 18 18 18 18 18 18 18 19 21 22 22 22 24 25 26 25
8 8 9 9 8 8 10 9 8 9 9 9 10 11 10 9 9 10 12 13 13 12 12 13 13 13 13 11 9 9 9 9 10 10 10 11 12 15 17 18 17 14 14 13 13 13 13 13 14 15 16 18 20 20 19 18 17 16 15 15 14 12 11 11 11 11 11 11 12 12 13 13 14 14 14 15 16 17 17 18 19 19 19 19 19 19 19 19 20 20 21 22 22 23 25 26 26
9 8 8 9 8 8 9 9 9 9 8 9 10 11 10 8 7 8 10 11 13 13 12 13 12 12 13 11 10 10 9 10 10 10 10 11 11 14 16 15 13 13 14 13 13 12 13 13 14 15 16 19 20 20 19 18 17 16 16 15 13 12 12 11 11 12 12 12 12 13 14 14 14 15 15 16 17 17 18 18 19 20 20 20 20 20 20 20 21 21 21 22 22 23 25 25 26
Wind_Direction
292 282 272 256 243 256 243 229 246 210 233 254 251 258 187 142 54 155 144 162 150 97 81 61 56 38 62 88 88 72 45 36 37 56 101 114 112 75 79 56 84 107 101 105 122 146 149 152 150 147 145 136 132 138 140 137 135 146 163 163 163 157 154 165 164 168 167 162 163 161 160 162 161 156 156 154 149 150 156 156 152 150 142 138 139 137 133 127 128 128 123 124 123 123 124 126 129
280 267 249 244 235 247 240 210 254 233 220 241 242 248 128 124 198 206 150 127 107 96 101 86 80 65 84 96 94 82 57 51 60 76 89 125 121 69 61 55 80 107 105 88 108 134 144 153 150 148 146 140 138 139 139 138 135 143 161 165 166 161 156 161 162 167 168 165 164 163 165 164 163 159 159 158 152 150 155 156 153 150 143 140 139 137 134 131 131 131 130 128 127 128 129 134 135
267 259 221 220 227 239 260 221 243 249 230 241 237 193 113 154 201 156 112 95 98 107 109 102 92 53 121 110 71 74 70 58 68 83 94 125 112 63 53 69 83 99 106 104 117 137 148 154 149 149 149 144 138 138 139 140 139 140 156 166 168 162 159 159 161 169 170 168 165 166 169 165 164 161 160 160 154 149 153 156 153 150 147 144 140 137 137 137 135 136 137 132 132 133 134 141 139
252 251 225 221 221 222 246 231 232 256 247 250 245 144 139 204 145 101 94 97 109 126 119 114 96 26 24 89 77 87 85 65 63 74 88 64 54 67 64 77 90 88 99 110 123 138 148 154 151 149 150 145 137 139 144 144 143 141 150 164 169 166 164 162 164 171 172 170 166 167 169 165 166 163 158 161 157 150 153 158 158 156 154 151 143 140 141 140 139 140 138 136 139 138 141 145 143
240 240 232 238 240 231 240 238 230 246 250 261 279 122 161 176 117 107 108 114 127 129 120 126 111 75 52 54 52 85 89 88 72 67 85 71 58 79 71 75 89 85 87 99 114 126 142 156 156 153 154 147 142 146 152 151 148 147 149 158 168 169 167 166 167 171 172 170 167 168 169 166 165 162 158 160 159 156 160 162 163 163 160 155 148 146 146 143 142 144 142 145 145 144 148 148 148
231 225 221 241 265 305 256 237 230 236 247 268 330 100 155 131 121 131 127 128 126 109 116 126 109 112 86 59 55 53 54 95 82 65 78 79 72 73 72 77 81 83 81 90 104 113 137 155 157 156 157 151 150 153 155 156 154 153 154 159 166 169 168 169 170 170 172 171 169 170 170 168 164 162 160 161 162 164 167 165 163 162 160 155 151 148 147 147 147 150 151 150 147 150 153 150 153
227 216 202 228 249 264 246 238 236 237 228 235 330 65 147 124 129 141 137 139 133 122 120 116 115 114 110 104 83 58 49 77 88 77 78 78 75 73 73 79 77 78 83 90 98 112 137 153 158 159 159 155 156 158 154 156 160 160 159 163 164 167 170 171 171 170 172 172 171 170 170 170 167 165 161 162 165 168 170 168 164 161 159 154 150 150 152 155 155 160 157 150 149 153 154 151 153
234 234 205 224 231 209 234 244 241 242 174 189 185 20 128 131 143 154 153 155 145 142 135 130 146 117 109 112 92 83 72 79 88 84 84 80 78 78 71 73 77 74 83 93 98 119 143 152 157 162 164 159 162 161 154 157 162 166 165 165 166 168 171 170 171 173 174 173 172 169 169 171 170 167 163 167 169 171 173 171 169 164 161 156 154 157 162 163 162 166 158 150 154 156 154 151 152
229 232 225 230 239 217 228 239 239 235 104 169 166 74 80 139 165 165 155 150 140 143 125 121 191 136 107 100 95 109 97 90 93 87 86 81 78 77 68 66 77 76 80 93 97 114 145 154 154 167 170 165 167 162 156 161 161 166 171 169 169 171 172 174 176 179 179 175 174 171 171 172 172 170 168 175 175 175 178 176 174 169 165 161 162 164 168 171 169 168 160 152 159 162 154 150 152
217 221 235 231 241 232 227 228 238 227 155 166 153 173 192 159 180 168 157 144 138 130 106 106 158 120 109 105 106 113 106 106 104 93 87 83 82 77 70 66 74 81 82 92 98 102 135 153 156 168 170 171 175 166 163 167 162 165 175 176 174 176 178 179 181 182 181 178 177 175 172 173 174 175 176 180 182 182 183 180 179 175 170 167 167 168 172 176 170 164 158 152 162 164 154 152 152
216 210 241 242 237 235 234 223 225 220 148 156 154 173 186 175 189 176 164 141 137 125 122 189 143 113 109 104 99 108 114 113 104 96 93 87 84 78 75 70 72 80 82 89 96 98 108 136 161 170 170 180 182 174 171 171 167 166 175 183 181 183 184 183 184 181 180 179 180 181 176 175 177 180 181 180 185 188 185 183 182 179 176 171 169 172 174 174 165 160 153 149 158 158 152 151 148
230 203 224 238 237 235 238 236 220 195 149 177 176 166 180 182 188 180 159 138 144 135 132 217 132 127 125 111 106 119 121 113 106 104 101 94 86 80 77 73 72 76 80 84 89 95 95 106 147 165 167 181 185 180 178 176 174 171 175 185 186 187 188 186 186 182 181 181 181 185 183 180 178 181 183 180 185 191 187 184 183 180 178 172 171 175 176 173 166 159 151 149 153 151 149 151 146
241 223 224 232 244 248 239 246 224 164 160 194 172 158 176 182 185 183 162 150 166 149 120 76 120 159 119 108 122 128 124 116 116 110 103 98 92 87 82 76 72 73 77 83 88 91 91 96 112 143 164 179 183 181 182 183 181 178 179 184 186 187 190 190 187 185 185 186 186 186 187 184 180 183 184 181 185 192 189 186 184 182 180 173 173 180 180 178 170 159 152 152 152 149 150 149 145
239 241 246 243 244 254 256 257 220 173 201 180 144 146 176 183 187 184 168 166 161 122 100 80 79 196 117 123 143 136 131 126 120 111 105 100 96 93 87 81 74 72 71 75 84 89 90 95 104 127 155 173 180 181 186 189 187 185 185 184 185 187 190 193 190 189 191 192 191 187 187 184 184 188 186 183 184 191 191 188 189 186 182 176 175 183 187 185 171 158 156 156 154 150 150 149 147
241 257 259 255 248 247 250 255 234 220 196 146 137 154 172 174 188 179 172 183 131 95 101 89 4 311 131 158 154 133 130 128 122 113 111 105 104 100 94 87 78 72 68 68 72 81 89 95 102 116 136 160 182 188 191 196 196 191 189 186 184 187 190 193 192 192 194 193 190 188 186 185 186 190 190 187 186 192 193 189 194 190 183 178 178 185 190 189 174 162 159 156 155 151 150 154 155
243 267 256 248 254 246 224 232 243 244 163 137 146 159 164 154 193 173 86 43 112 119 157 112 39 4 68 82 111 119 125 127 125 123 121 116 117 115 107 99 89 80 72 69 64 69 81 94 103 108 121 146 177 190 194 199 203 195 188 188 185 189 191 193 193 193 195 192 190 189 188 188 188 191 194 192 191 193 193 191 195 193 185 181 179 184 189 187 176 165 162 158 156 153 152 156 158
235 250 251 237 242 248 220 210 232 258 122 137 152 161 171 163 179 150 95 116 123 138 147 98 84 55 73 86 102 114 124 128 131 137 136 138 143 135 120 109 100 94 85 77 66 64 66 80 97 103 112 128 155 177 195 198 206 198 186 189 189 192 194 194 198 196 195 193 192 193 192 191 187 193 196 193 194 194 193 192 195 194 187 183 179 179 186 185 176 167 166 163 158 156 157 159 163
226 228 242 236 234 244 238 206 205 77 114 144 159 168 179 166 169 163 175 183 136 147 139 114 107 89 91 102 110 118 126 131 140 147 146 157 153 125 113 101 88 89 94 86 72 66 62 60 75 92 96 104 131 146 184 188 197 192 182 192 193 192 195 195 201 200 197 195 195 196 195 192 187 193 195 192 193 193 195 194 193 195 189 184 179 174 180 182 177 172 170 166 162 161 162 170 179
224 229 231 236 238 236 353 358 53 27 141 153 160 173 183 171 167 171 189 177 157 171 153 151 140 117 120 121 122 127 130 136 144 151 149 145 107 93 89 92 87 76 80 84 78 67 65 56 51 67 71 77 104 111 168 177 176 178 178 193 192 190 196 197 200 201 200 198 197 197 196 195 191 193 193 190 192 192 195 195 192 195 191 185 180 173 174 179 181 178 175 171 169 168 167 181 185
224 233 230 239 243 84 51 1 20 335 116 143 160 180 188 167 160 178 203 176 175 197 163 174 171 146 146 135 133 134 137 144 148 156 148 124 103 106 88 87 91 78 74 83 84 69 68 68 56 58 54 57 73 92 133 156 162 170 176 188 191 190 195 198 201 207 207 203 201 200 200 200 196 197 192 185 189 192 191 192 195 196 192 189 184 175 172 179 181 181 181 176 178 187 186 191 188
217 225 240 284 283 105 134 189 333 301 308 159 159 183 187 158 166 188 211 188 189 213 174 175 174 149 146 139 140 142 146 151 153 158 141 120 108 107 89 81 78 77 85 85 80 70 72 78 73 61 53 50 45 83 94 132 165 174 177 186 190 190 195 198 202 211 214 211 209 206 208 205 198 199 192 184 187 187 185 189 193 193 192 190 184 173 172 177 174 177 183 185 195 206 200 191 199
229 225 249 342 329 221 121 120 90 203 259 196 159 194 185 156 196 199 217 210 168 207 137 133 135 138 143 143 146 149 153 156 156 154 138 127 119 107 99 98 96 94 88 79 76 69 67 69 78 70 58 57 34 74 90 99 161 179 184 182 181 188 193 196 204 211 214 217 215 213 218 211 199 200 188 187 193 186 186 190 189 188 189 188 182 176 176 177 175 176 182 195 205 208 199 189 209
241 229 234 289 303 336 101 120 127 197 223 203 176 196 162 167 211 202 224 224 69 47 86 102 111 130 138 145 150 155 156 158 158 152 143 136 128 116 106 100 97 94 84 81 80 74 69 61 69 71 60 61 38 55 89 92 103 154 180 175 178 195 193 193 210 216 214 219 218 217 224 214 206 211 191 189 198 191 187 188 186 184 188 187 183 184 182 179 182 182 183 197 205 200 197 194 201
242 245 211 202 254 336 97 126 152 205 221 215 141 145 171 198 213 186 220 229 80 61 80 101 114 125 137 147 154 159 158 158 156 147 141 135 125 117 107 99 93 90 87 84 80 74 72 62 62 66 61 60 47 47 68 87 87 97 146 163 189 199 189 198 215 219 215 216 218 216 222 220 219 226 208 201 202 194 189 189 186 185 191 191 187 191 188 184 189 189 186 196 203 200 201 199 200
233 251 178 168 216 176 133 148 168 192 222 247 179 221 213 212 239 184 215 198 115 143 124 132 133 132 143 151 157 159 159 158 150 144 138 131 127 123 112 108 104 97 94 88 84 75 73 70 66 65 62 59 57 59 60 75 86 84 97 120 186 192 196 214 214 215 214 214 223 221 221 230 224 215 216 222 215 204 197 192 189 190 194 193 193 196 192 191 195 193 190 196 201 206 205 202 208
217 239 167 171 204 172 175 188 180 196 206 204 219 227 218 205 287 241 223 175 138 166 166 165 152 150 153 154 160 160 160 156 147 146 139 133 134 129 119 120 113 105 102 97 92 82 76 76 72 67 61 56 59 68 66 68 76 73 75 78 105 162 214 225 216 225 222 211 224 225 223 233 230 214 214 218 212 208 202 189 187 194 197 194 197 199 198 198 200 199 197 200 200 208 213 206 212
198 225 203 191 193 168 200 204 182 209 211 207 233 233 215 196 219 242 217 161 157 184 179 173 162 163 161 155 162 163 160 156 152 151 141 141 143 135 132 131 116 109 110 103 97 90 84 80 73 69 63 54 56 69 70 62 67 65 64 72 80 81 177 223 230 248 238 228 229 222 218 223 228 226 220 215 210 204 204 203 193 196 199 199 200 200 204 205 206 206 202 206 204 209 217 208 210
205 218 201 188 200 186 202 212 190 213 208 200 245 251 229 203 221 241 182 149 174 192 183 177 172 171 165 160 162 164 162 159 159 156 150 154 153 144 144 136 124 122 117 106 100 97 89 82 75 69 66 58 54 62 65 60 58 58 58 59 63 54 35 191 236 250 251 250 247 237 224 223 225 224 219 219 222 210 206 215 207 205 207 204 204 203 208 209 209 210 208 216 214 214 222 217 218
221 214 214 190 204 210 201 208 199 214 201 172 247 259 234 216 225 220 149 155 186 188 189 180 178 175 167 165 165 169 165 164 167 163 162 166 157 149 147 139 138 132 117 113 110 106 97 89 83 73 68 63 58 58 57 57 52 52 61 51 35 20 325 273 253 253 271 267 259 251 239 238 237 227 222 222 228 217 208 214 215 227 229 216 209 203 210 213 209 209 212 222 220 218 226 223 223
223 211 232 201 202 219 203 201 194 206 175 139 234 255 236 218 213 193 151 173 189 186 194 181 180 177 169 170 170 173 167 169 174 169 170 169 158 154 149 145 149 135 121 126 120 113 109 98 93 82 75 69 64 61 58 58 53 52 52 46 35 13 341 321 301 277 274 275 278 269 252 249 242 236 235 229 232 225 214 217 218 231 237 227 216 206 213 218 213 212 211 215 215 216 223 222 224
226 210 232 227 236 223 186 186 189 198 158 155 227 257 262 221 185 167 153 174 187 189 192 182 181 178 172 174 178 178 170 177 179 173 174 169 163 160 153 151 154 137 127 131 126 121 120 112 105 96 86 76 70 65 64 62 57 55 49 44 39 18 355 343 328 311 288 273 279 281 273 268 254 245 239 233 238 233 227 227 221 227 234 227 225 217 215 223 221 218 214 213 215 217 223 223 223
225 214 222 227 249 208 161 176 191 203 175 181 221 245 263 225 158 153 158 174 188 191 191 186 180 179 181 178 186 190 177 180 181 178 176 171 169 164 157 157 156 143 135 135 133 132 130 127 121 111 101 86 77 68 66 63 60 61 54 47 41 33 15 352 345 321 307 300 296 283 283 287 276 263 249 239 238 233 233 237 227 224 229 225 227 222 216 224 229 225 220 218 221 222 225 226 224
218 224 238 226 223 192 159 175 196 213 200 194 216 240 262 225 147 155 172 180 193 199 192 189 182 180 190 188 192 200 190 184 186 183 177 175 175 167 163 162 158 151 145 144 142 143 142 140 138 129 119 102 87 73 69 62 60 64 55 52 47 41 29 10 354 320 306 309 310 304 311 306 291 276 261 249 244 235 229 238 238 228 227 225 224 222 218 224 231 231 226 220 225 227 228 232 229
206 212 245 248 232 228 190 171 187 205 209 208 214 233 265 268 143 159 188 192 199 210 198 189 189 188 197 203 200 203 203 196 193 188 180 181 179 171 170 165 163 161 155 155 152 153 153 152 151 144 136 124 109 91 85 69 69 68 52 55 47 36 42 24 349 318 319 310 310 325 331 322 309 291 266 255 253 247 233 236 240 232 230 228 226 228 224 225 228 232 234 229 228 232 233 238 239
238 215 226 242 235 246 256 199 160 184 205 226 223 224 247 254 197 171 194 205 203 213 211 197 196 200 203 211 214 210 210 205 201 196 186 184 181 175 175 169 168 168 165 167 164 164 163 160 160 153 148 141 128 120 145 130 95 71 46 45 35 25 30 22 0 342 327 301 312 330 331 326 320 312 283 267 261 257 249 243 242 237 232 227 230 232 227 225 228 230 234 238 239 241 241 239 245
309 291 246 253 247 240 253 120 128 188 212 229 238 236 239 242 230 194 188 205 211 213 217 212 207 212 212 215 224 225 223 217 208 202 190 185 183 179 178 174 172 173 173 175 174 175 172 167 166 162 159 154 157 166 114 75 65 57 41 34 27 23 19 13 19 18 341 310 326 323 326 328 323 323 303 284 266 256 256 252 247 246 240 230 231 232 229 229 233 234 234 238 243 248 250 244 242
322 311 281 270 270 260 260 140 143 210 248 245 248 248 246 242 239 222 193 194 213 219 219 220 218 221 225 226 230 232 233 231 220 209 192 186 185 180 179 178 175 177 177 179 182 182 180 177 174 170 165 163 176 152 90 60 43 43 39 30 21 21 17 7 7 21 2 347 342 319 318 333 330 325 312 296 283 264 257 256 251 249 247 243 240 238 237 236 235 237 236 236 238 243 250 247 238
283 275 265 259 256 254 275 97 133 171 248 259 258 252 250 244 244 239 211 197 209 221 224 226 226 226 231 236 238 237 235 234 227 210 188 186 187 181 180 180 180 182 181 182 187 188 187 187 182 176 170 163 160 145 123 94 59 46 43 35 22 21 22 13 1 6 359 345 339 331 326 328 332 327 313 301 291 281 271 265 256 250 249 249 250 249 248 243 236 234 234 237 239 242 245 243 239
259 251 252 256 255 242 194 135 183 218 233 258 258 254 251 245 247 249 236 220 212 215 224 233 236 234 232 235 239 240 240 241 230 201 182 187 187 182 181 182 184 186 185 185 190 192 190 191 188 182 176 168 159 158 153 134 106 80 72 56 37 32 34 30 27 32 14 351 331 328 329 325 330 321 309 300 287 281 276 276 269 258 251 249 250 250 247 241 237 236 236 239 241 244 246 238 237
243 249 252 248 253 259 228 172 189 226 241 265 268 265 260 248 247 247 241 238 231 221 223 233 239 239 239 240 246 247 243 241 223 185 180 188 189 186 182 183 186 186 188 189 192 195 194 194 193 186 180 175 165 162 159 145 140 119 97 74 59 62 63 56 50 40 4 345 324 302 304 321 322 311 306 301 292 285 275 275 276 269 260 255 252 251 249 241 238 239 236 235 235 240 245 236 230
230 237 254 266 276 279 267 176 152 233 237 248 263 268 258 244 238 238 234 230 234 233 228 230 231 232 238 244 250 251 242 232 207 182 185 190 190 189 186 185 185 186 192 192 192 195 196 196 194 188 182 179 171 165 163 162 167 164 160 166 137 130 91 56 38 17 349 332 323 305 298 308 308 302 303 300 297 295 284 276 274 274 272 267 260 255 254 248 243 243 235 233 231 230 234 236 233
245 226 229 265 294 286 263 242 231 253 240 213 225 255 255 231 224 229 228 219 223 232 235 232 226 227 233 236 236 234 224 218 208 191 187 189 189 189 189 188 186 188 193 192 192 194 195 196 194 188 184 181 175 168 168 173 179 178 184 185 146 122 74 55 42 27 358 335 327 313 295 291 293 294 297 295 294 294 289 285 276 273 273 271 270 263 259 254 250 249 240 235 233 228 227 230 233
265 210 190 226 274 268 253 246 233 257 264 170 195 258 285 243 215 215 210 210 214 223 234 234 229 227 228 227 219 215 210 203 207 200 188 186 187 188 189 189 189 190 192 191 191 192 194 196 192 189 187 183 178 173 169 174 180 175 171 164 136 93 90 95 83 69 21 343 325 312 295 284 281 282 287 290 290 289 287 285 280 276 273 270 273 270 265 259 253 251 245 237 233 230 227 227 228
266 79 174 215 248 247 241 242 237 258 282 165 196 243 277 275 252 219 192 200 214 215 219 223 224 223 218 216 209 206 205 193 195 201 193 187 186 187 188 188 189 190 190 190 190 191 193 195 194 191 190 186 180 177 173 179 189 182 172 172 164 137 122 135 144 149 129 357 323 314 304 294 289 278 278 282 284 286 288 287 283 278 275 272 271 269 266 263 258 255 250 242 236 230 227 230 232
252 69 247 239 244 241 235 239 242 254 265 239 221 225 247 260 253 209 183 207 223 213 210 211 212 215 211 211 209 207 202 189 190 196 194 190 185 186 187 185 188 190 189 189 188 189 190 193 194 192 192 189 182 179 177 180 185 182 183 186 176 158 148 160 168 168 182 203 275 307 307 302 296 282 278 277 277 281 283 285 284 280 277 276 272 269 268 266 264 262 257 250 243 238 235 233 232
278 270 257 251 245 240 237 244 251 253 253 258 247 220 226 258 244 199 193 220 232 216 209 207 207 212 209 207 210 211 201 187 191 194 190 188 184 184 184 183 186 187 187 187 185 186 187 190 192 192 194 192 185 181 180 180 179 182 190 185 177 172 166 176 181 178 201 223 239 272 290 298 298 289 283 278 272 275 277 279 280 280 279 277 274 272 271 270 268 267 264 258 251 247 243 235 231
260 245 245 235 230 231 235 242 253 262 248 245 246 226 221 259 264 239 207 200 222 228 212 200 199 207 205 202 206 208 202 191 193 193 186 185 183 181 182 182 183 182 182 183 183 184 186 188 192 194 196 194 189 185 183 181 180 185 190 181 179 180 176 183 188 190 210 234 250 259 268 277 286 285 282 277 269 268 272 273 274 276 276 274 273 272 272 271 268 267 266 262 257 252 245 235 231
231 237 244 236 227 225 238 240 239 253 249 244 246 228 218 239 258 281 263 164 195 240 231 204 194 202 204 202 207 212 210 200 197 195 183 179 178 178 183 184 181 178 178 181 183 183 186 190 193 196 198 196 192 187 185 183 183 187 188 182 183 184 183 190 193 198 210 228 247 253 263 272 275 273 272 275 272 268 270 270 270 271 272 270 270 270 270 270 270 267 265 263 260 255 247 237 231
230 235 237 243 243 230 239 242 235 241 243 248 249 219 217 238 253 283 300 165 189 230 244 215 192 200 207 206 209 214 220 214 205 198 185 179 178 178 184 185 181 178 181 184 184 184 187 192 195 197 198 196 193 189 186 184 185 187 187 185 187 187 191 197 200 205 212 227 243 247 259 271 276 274 270 272 272 271 271 270 268 267 268 268 268 271 271 269 270 269 266 263 260 259 253 241 235
225 235 234 240 252 250 249 246 242 248 248 251 249 222 230 246 255 265 251 207 195 213 232 220 196 203 211 216 218 212 216 222 215 204 193 187 184 183 184 185 184 183 185 186 186 187 189 192 195 198 199 195 192 191 189 187 188 189 188 188 189 190 193 199 205 210 215 231 245 248 256 264 272 274 271 270 268 267 268 269 269 266 265 266 266 269 270 268 269 269 268 265 261 260 258 250 242
222 236 245 245 249 256 264 270 269 274 289 290 238 226 237 242 250 261 244 222 200 202 214 210 203 213 217 225 233 225 217 221 221 214 205 194 190 190 189 188 189 190 190 189 188 189 190 192 195 197 198 195 193 193 192 190 190 189 189 189 190 193 196 199 207 213 217 230 243 251 256 260 267 271 271 271 268 266 267 266 266 265 263 263 262 263 265 265 266 267 265 264 263 260 258 256 250
235 235 245 247 254 259 265 277 284 291 301 276 238 228 236 253 266 258 241 227 210 207 210 206 204 209 214 220 229 233 228 223 222 219 215 204 193 193 194 193 194 195 194 193 192 190 189 192 194 196 198 196 194 194 194 193 191 189 189 189 190 192 195 200 207 212 217 228 241 250 257 260 263 268 271 271 269 267 266 265 264 264 263 262 261 261 261 262 262 262 261 259 260 260 257 256 253
263 241 243 253 267 273 270 268 269 271 270 266 255 247 243 255 264 250 233 229 226 222 214 210 209 204 208 215 219 227 230 225 223 219 217 209 195 193 197 197 195 195 196 194 190 187 187 188 190 194 197 195 194 195 195 194 192 190 188 188 190 192 194 200 207 212 217 228 242 250 256 260 261 265 268 269 269 267 265 264 264 265 265 263 262 261 260 260 259 258 257 256 256 257 256 255 253
262 256 265 277 271 267 269 268 265 259 260 263 256 254 251 250 261 256 240 231 232 236 227 217 214 209 211 214 215 223 227 225 222 216 214 209 197 195 198 199 197 195 196 191 183 179 181 185 188 191 195 195 194 195 196 195 192 191 190 190 192 193 196 202 209 215 221 230 240 246 253 259 261 263 266 268 269 268 266 264 264 264 264 263 262 262 261 260 259 258 257 256 255 254 254 254 253
251 265 279 280 268 258 252 256 262 262 264 266 257 255 256 252 255 260 257 250 239 237 235 226 219 215 216 216 215 218 218 219 217 212 211 206 200 199 198 201 202 195 187 180 172 169 174 181 186 192 196 196 194 193 195 195 193 192 192 192 193 194 199 206 211 216 223 231 237 243 251 257 259 262 265 268 269 269 268 266 265 265 264 263 262 261 262 262 260 258 258 257 256 253 252 252 252
242 257 264 260 262 266 262 258 258 260 264 268 265 263 259 259 261 256 261 271 262 239 232 236 234 224 219 219 217 213 208 208 209 208 208 203 203 204 200 204 206 186 166 165 165 165 173 179 186 193 198 196 193 193 194 194 194 194 193 192 194 197 202 208 212 218 225 233 238 243 249 254 258 261 263 266 268 269 270 269 268 267 265 265 263 261 261 261 260 259 256 256 256 254 252 251 250
246 247 252 250 251 258 261 258 254 256 263 265 266 267 263 263 270 262 259 273 276 257 233 232 239 234 226 221 218 217 206 204 208 208 207 203 204 207 206 211 208 177 156 164 169 170 177 181 188 193 194 194 192 192 195 195 195 195 193 192 195 199 205 210 215 221 229 236 240 244 249 253 257 260 262 265 268 269 271 272 271 270 268 266 264 262 260 259 259 259 257 257 258 257 255 253 251
273 268 266 263 261 261 261 259 252 251 261 267 268 272 269 267 279 278 269 268 275 275 261 246 238 232 232 226 218 221 213 205 208 209 212 209 205 211 212 208 195 172 166 173 173 176 181 182 187 191 192 194 193 193 195 196 195 196 195 195 197 201 206 212 218 224 231 238 243 246 249 252 256 260 263 265 268 270 271 272 272 271 270 267 264 263 261 259 258 258 257 258 258 258 258 256 254
Height
785 785 784 784 782 782 777 776 785 777 773 779 762 752 745 738 744 748 753 752 754 752 745 745 744 745 750 758 762 765 768 770 775 782 797 789 778 782 782 785 787 788 789 790 792 794 796 798 798 799 800 801 802 802 803 803 803 804 804 805 806 807 808 809 810 811 812 813 814 814 814 815 816 816 817 818 818 819 820 821 821 822 823 823 823 824 824 825 826 826 827 827 828 828 828 828 828
786 786 784 784 781 783 775 771 787 778 773 780 759 747 742 740 749 750 752 752 754 751 744 746 748 749 750 752 754 762 772 770 771 775 780 778 778 782 783 787 787 789 790 790 793 794 797 798 798 799 801 802 802 803 804 804 804 804 805 805 806 807 808 809 810 812 813 814 814 815 816 816 817 817 818 819 819 820 820 821 822 823 824 824 824 824 825 826 827 827 828 828 828 829 829 829 829
786 785 783 784 779 778 773 772 786 779 772 774 754 739 740 748 750 747 748 750 750 748 747 749 752 754 752 757 760 768 778 771 769 773 776 776 777 781 786 787 787 789 790 792 793 793 796 797 798 799 801 802 803 804 804 805 805 805 805 806 806 807 808 809 810 812 813 814 815 816 816 817 818 818 819 820 820 821 822 822 823 824 824 825 825 825 826 827 828 828 829 829 829 830 830 831 831
784 784 781 780 778 778 778 779 781 775 770 764 749 736 741 748 746 748 750 750 749 747 750 752 758 757 754 765 766 769 779 775 773 774 777 779 779 783 786 787 788 789 790 793 794 794 794 796 798 800 802 803 803 804 805 805 805 806 806 806 807 808 809 809 810 811 813 814 815 816 817 818 819 820 820 821 821 822 823 823 824 825 825 826 826 826 827 827 828 829 830 830 830 830 831 832 833
784 784 781 778 779 776 775 777 772 772 767 753 745 740 742 742 746 754 753 752 750 749 752 753 762 759 757 766 765 772 780 776 776 776 779 783 782 784 786 788 789 789 791 792 794 795 795 797 798 800 802 802 804 804 805 806 806 806 806 807 808 809 809 810 810 811 813 814 815 816 817 818 819 821 821 822 822 822 823 824 825 825 826 826 826 827 828 828 829 830 830 830 831 831 832 833 834
783 782 779 777 775 770 775 778 771 769 756 743 746 743 740 740 748 756 754 754 751 751 753 753 760 761 768 771 767 775 776 775 779 779 780 783 784 785 787 788 789 790 791 792 794 796 797 799 800 801 802 802 804 804 804 805 806 807 807 808 808 809 810 811 811 812 813 814 815 816 817 818 820 821 821 822 823 823 824 825 826 826 827 827 828 828 828 829 830 830 831 831 831 832 832 834 835
781 779 778 780 775 772 782 779 769 763 746 739 747 746 741 743 748 753 756 758 757 755 754 755 754 762 774 772 774 778 775 777 780 781 783 784 785 787 788 789 790 792 792 793 793 795 797 799 800 801 802 803 803 804 805 805 807 807 808 809 809 810 811 812 812 813 813 814 815 816 817 818 819 821 822 823 824 824 825 826 826 827 828 828 829 829 829 830 830 831 831 831 832 832 833 834 835
779 778 774 780 779 775 781 775 763 754 744 740 744 746 742 744 748 752 757 758 760 759 757 756 753 764 773 769 779 782 778 781 781 784 785 785 787 788 790 789 791 793 793 794 794 795 797 799 801 802 802 802 803 804 805 805 807 808 809 809 810 811 811 813 813 813 814 814 816 816 818 819 820 821 823 824 824 825 826 826 827 828 828 829 830 829 830 830 831 831 831 832 832 833 834 835 836
777 776 773 779 779 775 776 772 760 747 747 747 745 749 745 744 748 751 755 756 758 758 759 758 755 767 773 772 783 781 779 784 784 785 786 787 789 789 791 790 792 794 795 795 795 796 797 799 801 801 802 803 804 805 805 806 807 809 810 810 811 812 812 813 813 813 814 815 816 817 818 819 820 822 823 824 825 826 826 827 828 828 829 830 830 830 831 831 832 832 832 833 833 834 835 836 836
775 774 774 778 778 776 774 768 758 744 746 749 747 751 747 746 747 749 755 757 757 759 761 757 757 766 771 778 783 780 781 784 784 786 787 789 790 791 792 792 794 795 796 796 797 798 798 800 800 801 802 803 804 805 805 806 807 809 810 811 812 812 813 813 813 814 814 815 816 817 819 819 821 822 824 825 826 827 827 828 828 829 829 830 830 831 832 832 832 833 833 833 834 835 835 836 836
776 772 771 779 779 777 770 762 755 745 745 750 751 749 747 747 749 750 753 757 757 761 763 759 762 766 771 779 782 781 782 784 785 787 789 790 792 793 793 794 795 796 797 798 798 799 798 800 800 801 802 804 804 805 806 807 808 809 810 811 812 813 813 814 814 814 815 816 817 818 819 820 821 822 824 825 826 827 828 828 829 830 830 831 831 832 832 832 833 833 834 834 834 835 836 837 837
778 773 772 781 778 770 762 756 750 744 749 754 755 750 746 747 752 754 755 759 760 763 764 760 761 763 773 782 781 781 782 784 786 788 790 792 793 794 795 795 796 797 798 799 799 799 800 800 800 801 802 803 804 806 807 808 809 810 811 812 812 813 813 814 814 815 816 817 818 818 819 820 821 823 824 825 827 828 828 829 829 830 830 831 831 832 832 833 833 833 834 834 835 836 837 837 838
776 771 773 779 770 761 755 751 745 746 756 755 753 750 747 751 755 755 756 761 761 765 765 759 757 759 773 781 780 781 783 785 787 789 791 792 794 795 796 796 797 798 798 799 800 800 801 801 801 801 802 804 805 806 807 808 810 810 811 812 812 813 814 815 815 816 817 817 818 818 819 820 822 823 824 825 827 828 829 829 830 830 831 831 832 832 832 833 833 834 834 835 836 837 837 838 839
772 765 769 773 765 758 754 751 746 753 759 748 749 751 750 753 753 752 755 763 763 763 763 757 757 763 773 780 782 782 783 786 788 790 792 793 795 796 797 798 799 799 799 800 800 801 801 802 802 802 803 804 805 806 808 809 809 810 811 812 813 813 814 815 815 816 817 818 818 819 819 820 822 823 824 825 826 828 829 830 830 830 831 831 832 832 833 833 834 834 835 836 837 838 838 839 839
767 762 766 772 766 760 756 754 750 755 754 745 751 753 754 754 750 752 755 762 763 760 761 761 761 767 772 776 780 779 782 787 789 792 793 795 796 797 798 799 800 800 801 801 801 801 802 803 803 804 804 805 806 807 808 809 809 810 811 812 813 814 815 815 816 816 817 818 819 819 819 820 821 823 824 825 826 827 828 829 830 830 831 832 832 832 833 834 834 835 836 836 838 839 839 840 840
763 763 770 775 770 764 758 754 752 755 751 747 751 751 758 759 752 756 755 756 763 761 762 766 766 768 769 770 774 777 783 788 790 793 794 795 796 796 797 798 801 801 802 803 803 803 802 804 804 805 805 805 807 807 808 809 809 810 811 812 813 814 815 815 816 816 817 818 819 819 819 820 821 822 823 824 825 827 828 829 830 830 831 832 832 833 834 834 835 836 836 837 838 839 840 840 840
762 768 776 776 771 764 755 752 754 755 751 751 751 751 761 765 758 757 755 755 764 766 765 768 768 767 770 772 775 779 785 789 791 793 793 795 794 794 796 797 799 801 803 804 804 804 804 804 804 805 805 806 807 807 808 808 809 810 811 812 813 814 815 816 816 816 817 818 819 819 819 820 821 822 823 824 825 826 827 828 829 830 831 832 833 833 834 835 836 837 837 838 839 840 841 841 841
767 774 778 774 767 758 748 747 748 748 753 755 753 752 758 765 764 760 760 762 765 769 769 770 771 770 773 776 779 783 787 790 791 792 793 793 792 793 795 797 799 800 802 804 805 806 805 805 805 806 806 806 807 807 808 808 809 810 811 813 813 814 815 816 817 817 818 818 818 818 819 819 820 821 822 823 824 826 826 827 828 830 831 832 833 833 834 835 836 837 838 839 839 840 841 841 841
770 772 775 770 758 750 744 744 746 748 753 755 753 753 755 761 763 761 764 768 768 771 772 772 774 776 776 777 781 785 788 790 792 792 793 793 793 795 796 798 800 801 802 804 806 806 806 806 806 806 806 807 807 807 807 808 808 809 811 812 812 813 814 815 817 818 818 818 818 818 819 819 820 821 822 823 823 825 825 826 828 829 831 832 833 833 834 836 837 838 839 840 840 840 841 841 841
768 767 771 762 748 748 748 749 752 751 750 754 757 754 755 757 758 761 764 767 769 770 771 773 775 778 778 778 782 786 789 791 792 793 793 794 796 797 798 800 801 802 804 804 806 807 807 807 807 807 807 807 807 807 807 807 808 809 811 812 812 813 814 815 817 819 819 818 818 818 819 819 820 820 821 822 823 824 825 826 828 829 831 832 833 833 834 836 837 838 839 840 840 840 841 841 841
765 764 765 755 745 751 753 752 754 753 752 754 758 759 759 757 757 761 762 766 771 765 762 767 769 773 777 779 782 786 789 790 792 793 794 796 797 799 800 801 802 803 803 804 806 807 807 807 807 807 807 807 807 808 808 807 807 809 810 811 812 813 814 815 817 819 819 818 818 818 819 818 819 820 821 822 822 823 824 825 827 829 830 831 832 833 834 835 837 839 840 841 840 840 840 840 840
763 761 757 754 752 755 755 754 757 757 755 755 760 762 760 759 760 761 762 766 768 760 756 761 764 769 776 779 783 785 788 790 791 793 795 797 799 799 801 802 803 803 803 805 806 807 808 807 807 808 808 808 808 808 808 808 808 808 809 810 811 812 813 814 816 818 818 818 817 817 818 817 819 819 819 820 821 821 822 824 825 828 829 830 831 833 834 835 836 838 839 840 839 839 840 841 841
765 761 755 757 757 757 757 758 761 760 759 760 761 759 757 763 765 761 762 763 763 760 759 762 764 767 774 779 783 785 787 789 790 792 795 797 799 800 801 802 802 803 804 805 807 808 808 808 808 808 808 808 808 808 808 809 809 809 809 810 809 810 811 812 816 818 818 817 816 816 817 817 819 819 818 819 820 820 821 822 824 826 827 829 830 831 833 834 835 836 837 838 838 839 839 840 841
766 762 756 759 759 759 761 761 763 761 761 760 759 760 762 767 766 762 764 762 762 764 762 764 765 768 775 779 783 785 786 788 790 792 795 797 799 800 802 803 803 804 805 806 807 808 808 808 808 809 809 809 809 809 809 809 810 810 810 811 811 811 812 814 817 818 817 816 815 816 816 818 819 819 819 820 820 820 820 820 822 824 826 828 829 830 831 832 834 835 836 837 837 838 838 840 841
766 762 757 760 761 761 762 763 765 764 763 761 762 767 765 764 764 766 766 762 764 766 764 765 767 771 777 780 783 784 786 788 791 793 795 798 800 801 802 803 804 805 806 807 808 808 809 809 809 809 809 809 809 809 810 810 811 812 812 813 812 813 814 815 817 817 816 816 815 815 816 818 819 820 821 820 820 819 818 819 820 822 824 826 828 829 830 831 833 834 835 836 836 837 837 838 840
762 759 758 762 764 762 764 764 765 765 764 764 768 769 765 763 767 770 764 762 765 766 767 767 769 774 777 781 783 784 786 788 791 794 796 799 801 802 803 804 805 806 807 808 808 809 809 810 810 810 810 810 810 810 810 811 812 812 812 813 813 814 815 814 815 815 815 815 815 815 816 818 819 819 820 819 818 818 818 819 820 822 824 826 827 827 829 830 832 833 834 835 836 836 836 837 839
757 759 760 762 763 763 765 764 765 766 764 766 769 768 765 764 771 772 760 760 766 767 769 769 771 776 777 780 782 783 786 788 792 794 796 799 800 802 803 804 805 806 808 808 809 809 810 810 810 810 810 810 810 810 811 812 812 812 813 813 813 814 814 814 814 814 814 814 815 816 816 817 818 817 818 818 818 818 818 819 820 822 825 825 825 826 827 829 830 832 833 834 834 835 835 836 838
758 760 763 764 765 765 765 765 765 766 766 766 767 767 765 765 771 768 759 761 766 767 769 769 771 775 776 779 781 783 785 788 791 793 796 798 799 801 803 803 805 807 808 808 809 810 810 811 811 811 811 811 811 811 811 812 812 812 813 813 813 813 814 814 814 813 813 813 813 814 815 816 817 817 817 818 819 819 819 819 818 821 823 824 824 825 826 828 829 831 832 833 833 833 834 835 836
760 761 767 768 767 767 766 765 765 766 766 764 767 773 770 768 769 762 759 764 764 767 769 769 771 773 775 778 780 782 784 787 789 792 795 796 798 800 802 803 805 806 807 809 810 810 811 811 812 812 811 811 811 811 811 812 812 812 813 813 813 813 813 813 813 813 812 812 811 812 813 814 816 817 817 818 819 819 819 819 819 820 822 823 823 824 826 827 828 830 831 832 832 833 833 834 835
763 763 766 766 770 770 762 762 764 766 767 763 772 783 772 760 760 757 759 764 764 768 769 769 771 771 774 776 778 781 782 785 787 790 793 794 797 799 801 804 804 805 807 809 810 811 812 812 812 812 812 812 812 812 812 812 812 812 813 813 813 813 813 812 812 812 812 812 811 811 812 813 814 816 816 817 818 819 819 820 820 821 823 823 822 823 825 826 826 828 830 830 832 833 833 833 834
764 765 765 765 770 765 754 759 765 768 767 763 774 785 769 751 752 755 759 763 765 768 768 768 770 771 773 775 778 779 781 784 786 788 791 793 796 798 801 803 804 805 806 809 810 811 812 812 813 813 813 813 813 813 812 813 813 812 813 813 813 812 812 812 812 812 812 811 811 811 811 811 813 814 814 815 817 819 819 819 819 821 824 823 822 823 824 825 825 826 828 829 830 831 832 832 833
764 770 774 767 766 760 754 758 762 766 766 763 774 782 766 749 749 756 759 762 764 767 768 767 769 772 773 775 776 777 779 782 784 787 790 792 795 797 800 803 804 805 806 809 810 811 812 812 813 813 813 813 813 813 813 813 813 813 813 813 813 812 812 812 812 812 811 811 811 811 811 811 812 813 813 815 816 817 817 818 817 819 822 823 822 822 822 824 824 825 826 828 829 830 830 830 831
764 769 774 765 763 763 760 760 758 760 764 765 772 774 762 748 749 757 760 762 764 766 767 767 770 772 773 774 775 776 777 779 782 785 789 792 794 796 799 802 804 805 806 808 809 811 812 812 813 813 814 814 813 813 813 813 813 814 813 813 813 812 812 812 812 812 811 811 811 811 811 811 812 813 813 814 815 815 815 816 817 818 820 821 821 821 821 822 823 824 825 826 827 828 829 828 828
766 767 770 762 758 760 760 761 757 757 763 766 768 770 763 752 750 759 761 761 764 765 766 767 769 771 772 773 773 775 776 778 780 782 787 790 792 795 798 800 803 805 806 807 809 810 811 812 812 813 813 813 814 813 813 813 813 813 813 813 813 812 813 812 812 812 812 812 811 811 811 811 812 812 814 814 814 814 814 815 817 818 819 819 820 820 821 822 822 823 824 825 826 827 827 827 826
763 763 768 765 760 761 760 759 757 758 766 767 767 769 765 756 753 758 762 761 764 765 765 766 768 770 771 771 771 772 773 775 777 779 784 788 791 794 796 799 802 804 805 807 808 809 810 811 812 812 813 813 814 813 813 813 812 813 813 813 813 813 813 812 812 812 812 812 811 812 811 811 812 812 813 814 814 815 814 814 815 816 817 818 818 819 820 821 821 822 823 824 825 826 826 826 826
761 758 762 765 762 761 757 759 761 761 767 769 767 767 764 759 755 756 761 762 764 765 764 765 767 768 768 770 770 769 771 772 773 776 781 785 789 792 795 797 800 802 804 806 807 808 809 810 811 812 812 813 813 813 813 813 813 813 813 813 813 813 812 812 812 812 812 812 812 812 812 812 812 812 813 813 814 815 815 814 815 816 816 816 817 817 818 819 821 822 822 823 824 825 825 825 826
768 766 767 768 766 762 754 758 764 763 770 771 764 764 761 758 755 752 757 762 765 766 765 766 767 768 768 768 768 768 769 769 769 772 776 782 786 790 793 795 798 801 803 805 806 807 808 809 810 811 812 812 812 812 813 813 813 813 813 814 813 812 813 812 812 812 812 812 812 812 812 812 812 812 812 813 814 814 815 815 815 815 815 815 816 816 816 817 819 821 821 822 823 823 823 824 824
773 773 773 770 768 764 757 760 765 765 775 774 764 765 762 757 755 751 751 759 765 766 766 766 765 766 767 766 767 766 766 765 765 768 772 779 784 787 791 793 796 798 800 803 804 806 807 808 809 810 811 812 812 812 813 813 814 814 813 813 813 813 813 812 812 812 812 812 812 812 812 812 812 812 812 812 813 813 814 814 814 815 814 815 815 815 815 816 817 818 819 820 821 822 822 822 823
777 774 774 772 764 760 760 765 767 766 776 777 767 766 761 755 755 752 750 754 758 761 762 764 763 764 764 764 764 763 764 764 763 765 770 776 781 784 788 790 793 796 798 801 803 804 806 807 808 809 810 811 811 812 813 813 814 813 813 813 813 813 813 812 812 812 812 812 812 812 812 812 812 812 812 812 812 812 813 813 813 814 814 814 814 814 814 814 815 816 817 818 819 820 821 821 822
777 774 774 771 761 762 767 768 770 769 774 776 770 767 762 757 756 754 751 750 751 754 757 759 759 760 760 760 761 761 762 763 763 765 770 774 778 782 785 788 790 793 796 798 801 802 804 805 807 808 809 810 811 812 812 813 813 813 813 813 813 813 812 812 812 812 812 812 812 812 812 812 812 812 812 812 812 812 812 812 813 813 813 813 813 813 813 813 813 813 814 816 816 818 818 819 820
775 773 773 769 761 766 770 771 775 773 774 774 773 777 769 758 758 755 749 749 750 750 752 755 755 756 758 759 759 760 761 762 763 767 771 773 776 779 781 785 788 790 793 795 798 800 802 803 805 806 808 809 810 810 811 812 812 812 812 812 812 812 812 812 812 812 812 812 812 812 812 812 811 812 811 811 811 811 811 812 812 812 812 812 812 812 812 812 811 811 812 812 813 815 816 816 817
774 767 768 769 768 770 771 773 779 781 779 771 773 786 772 749 752 753 746 747 749 749 749 751 752 754 756 757 758 759 760 761 762 764 768 771 773 776 779 782 785 788 790 793 795 798 800 801 803 805 806 808 809 809 810 811 811 811 811 811 811 810 811 811 812 812 812 812 812 812 812 811 811 811 811 811 811 811 811 811 811 811 811 811 811 810 810 810 810 810 810 810 810 812 813 815 815
777 765 761 768 771 773 774 775 780 781 776 767 770 783 773 752 748 746 744 747 748 749 750 749 750 751 752 753 754 756 758 760 762 762 765 768 771 773 776 779 782 785 787 790 793 795 797 799 801 803 805 806 807 808 808 809 810 810 810 810 810 810 810 811 812 812 812 811 811 811 811 811 811 810 810 810 810 810 810 810 810 810 810 810 809 809 809 809 808 808 808 808 808 809 811 812 813
777 766 762 768 771 775 775 775 778 772 765 768 769 772 777 768 750 737 740 749 749 748 749 748 747 747 748 749 750 752 754 757 761 762 762 765 768 770 773 776 779 782 785 788 791 793 795 797 799 801 803 804 805 806 807 808 809 809 810 810 810 810 810 810 811 811 811 811 811 811 811 810 810 810 810 810 810 810 809 809 809 809 809 809 808 808 807 807 807 807 807 806 806 806 807 809 810
771 766 765 767 769 772 772 772 774 765 765 776 767 763 780 775 747 734 739 748 750 748 747 747 745 745 745 746 747 748 749 753 757 760 761 762 765 768 771 774 777 780 783 786 788 791 793 795 797 799 801 803 804 805 805 806 807 808 809 809 809 809 809 810 810 810 810 810 810 810 810 810 809 809 809 809 809 809 809 808 808 808 808 808 807 806 806 805 805 805 805 805 804 804 804 805 806
766 765 767 767 768 769 770 772 770 765 772 780 766 760 777 770 742 734 744 750 748 744 742 742 742 742 742 744 745 746 746 750 754 756 758 760 763 766 769 772 775 778 781 784 787 789 791 793 795 797 799 801 802 803 804 805 806 807 807 808 808 809 809 809 809 809 809 809 809 809 809 809 809 808 808 808 808 808 808 808 807 807 807 806 806 805 805 804 803 803 802 802 802 802 802 803 804
765 769 770 769 769 768 771 770 768 775 780 774 760 754 768 771 746 729 736 743 742 739 738 739 739 740 741 742 744 744 745 747 750 753 756 759 762 765 768 770 774 777 780 783 785 787 789 791 793 795 797 798 800 801 802 803 804 805 806 807 807 807 808 808 808 808 808 808 808 808 808 808 808 808 807 807 807 807 807 807 807 806 806 805 805 804 803 803 802 801 800 800 800 799 799 800 801
767 771 770 772 772 771 776 774 775 788 785 765 750 746 762 775 754 728 726 731 735 737 736 736 738 739 740 741 742 742 742 744 747 750 753 758 761 764 767 769 772 776 779 781 783 785 787 789 790 792 794 796 798 799 800 801 802 804 804 805 806 806 807 807 807 807 807 807 807 807 807 807 806 806 806 806 806 806 806 806 806 805 805 804 804 802 802 801 801 800 799 798 797 797 797 797 797
768 769 772 778 779 778 785 785 782 786 776 755 744 749 764 767 747 731 729 730 733 736 733 732 736 738 739 740 741 741 741 742 744 747 751 756 761 763 765 769 771 774 777 778 780 782 784 786 788 790 792 794 795 796 798 799 800 802 803 804 804 805 805 806 806 806 806 806 806 806 806 805 805 805 805 805 805 805 805 805 804 804 803 803 802 801 800 799 799 798 797 796 795 795 795 794 794
770 768 771 779 782 784 787 779 773 771 762 750 745 755 769 762 742 731 729 729 730 732 731 731 733 736 738 737 737 739 740 741 741 743 747 753 758 762 764 767 769 772 774 776 778 780 782 784 786 788 789 791 793 794 796 797 798 800 801 802 803 804 804 804 805 804 805 805 805 805 805 804 804 804 804 804 803 803 803 803 802 802 801 801 800 800 799 798 797 796 796 795 794 793 792 792 791
762 758 760 769 772 780 783 772 768 767 763 760 759 767 772 762 743 728 723 723 724 729 730 730 732 734 736 736 736 737 738 739 740 741 743 748 754 758 761 763 766 768 771 773 776 778 779 781 783 785 787 789 791 792 794 795 796 798 799 800 801 802 803 803 803 803 803 804 804 804 804 803 803 803 802 802 802 801 801 800 800 799 799 798 798 797 797 796 795 794 794 793 792 791 790 790 789
753 749 758 764 758 763 772 770 767 770 774 770 766 766 759 746 734 724 723 724 722 726 728 729 733 734 735 738 737 737 738 738 739 741 742 745 749 754 758 761 763 765 768 770 773 775 777 779 781 783 785 787 789 790 792 793 794 796 797 798 799 800 801 801 802 802 802 802 802 802 802 802 802 801 801 801 800 799 799 798 797 797 796 796 795 795 794 793 793 792 791 790 789 789 788 787 787
753 753 760 755 744 751 767 771 765 771 783 773 760 759 750 742 737 725 724 727 725 725 726 727 731 732 734 737 737 737 737 737 738 740 741 743 747 752 755 758 761 763 765 767 770 772 774 776 779 781 783 785 787 788 790 791 793 794 795 796 797 798 799 800 800 801 801 801 801 801 801 800 800 800 799 799 798 797 797 796 795 795 794 794 793 792 792 791 790 790 789 788 787 787 786 785 785
755 759 754 746 746 750 762 775 774 775 783 770 757 759 754 751 747 729 722 727 728 726 725 726 729 730 733 734 734 735 735 735 737 737 740 742 745 750 754 756 759 761 763 765 768 770 772 775 776 778 780 782 784 786 788 789 791 792 793 794 795 796 797 798 798 799 799 799 799 799 799 799 798 798 798 797 796 796 795 794 793 792 792 791 791 790 790 789 788 787 786 785 785 784 783 782 782
748 751 745 750 764 764 763 776 782 783 784 772 760 756 750 747 742 731 726 725 725 726 725 726 727 729 731 731 731 733 733 734 735 736 739 741 744 748 751 754 756 758 762 764 766 768 771 773 775 776 778 780 782 784 786 787 788 790 791 792 793 794 795 795 796 797 797 797 797 797 797 797 796 796 795 795 794 794 793 792 791 790 789 789 788 788 788 787 786 785 784 783 782 782 780 780 779
743 746 746 749 758 762 761 765 772 778 782 776 766 758 748 736 727 726 727 723 721 724 724 726 726 725 728 729 729 731 732 733 734 735 737 739 742 745 748 751 753 756 761 763 765 767 769 771 773 775 776 778 780 782 783 785 786 787 789 790 791 792 792 793 794 794 795 795 795 795 795 795 794 794 793 792 792 791 791 790 789 788 787 787 786 785 785 785 784 783 782 780 780 779 778 777 776
749 753 754 752 752 753 754 756 757 763 771 772 769 763 746 726 716 719 722 721 720 719 720 723 723 722 724 726 728 730 731 732 733 734 735 737 740 742 745 748 750 754 760 762 764 766 767 769 771 773 774 776 778 780 781 783 784 785 787 787 789 789 790 791 792 792 793 793 793 793 793 792 792 791 791 790 789 789 788 788 787 786 785 784 784 783 782 782 781 780 779 778 777 776 775 774 773
748 751 750 751 753 755 760 763 754 750 760 765 765 762 743 719 713 716 717 719 718 716 717 718 718 720 722 723 727 729 729 731 732 732 734 735 737 740 742 745 748 753 757 760 762 764 765 767 769 770 772 773 775 777 779 781 782 783 784 785 787 787 788 789 790 790 790 790 791 790 790 790 789 789 788 787 787 786 786 785 784 783 782 782 781 780 780 779 778 778 777 776 775 774 773 771 770